| time (UTC) | temp F | wind direction | speed MPH | gust MPH | rain 1hr in | rain 24hr in | rain mn in | humidity % | barometer mb |
| 20260831122202 | 59 | 315 | 1.0 | 6.0 | 0.00 | 0.01 | 0.01 | 88 | 1018.3 |
| 20260831121203 | 58 | 315 | 1.0 | 5.0 | 0.00 | 0.01 | 0.01 | 90 | 1018.4 |
| 20260831120202 | 58 | 314 | 2.0 | 6.0 | 0.00 | 0.01 | 0.01 | 91 | 1018.3 |
| 20260831115203 | 57 | 314 | 2.0 | 5.0 | 0.00 | 0.01 | 0.01 | 92 | 1018.5 |
| 20260831114203 | 56 | 314 | 2.0 | 6.0 | 0.00 | 0.01 | 0.01 | 94 | 1018.5 |
| 20260831113202 | 56 | 313 | 2.0 | 5.0 | 0.00 | 0.01 | 0.01 | 94 | 1018.4 |
| 20260831112203 | 55 | 313 | 1.0 | 5.0 | 0.00 | 0.01 | 0.01 | 95 | 1018.5 |
| 20260831111203 | 55 | 313 | 1.0 | 4.0 | 0.00 | 0.01 | 0.01 | 95 | 1018.3 |
| 20260831110203 | 54 | 313 | 2.0 | 5.0 | 0.00 | 0.01 | 0.01 | 95 | 1018.2 |
| 20260831105203 | 54 | 313 | 1.0 | 5.0 | 0.00 | 0.01 | 0.01 | 95 | 1018.0 |
| 20260831104202 | 53 | 313 | 1.0 | 3.0 | 0.00 | 0.01 | 0.01 | 95 | 1018.0 |
| 20260831103203 | 53 | 313 | 2.0 | 4.0 | 0.00 | 0.01 | 0.01 | 95 | 1017.9 |
| 20260831102203 | 53 | 313 | 1.0 | 3.0 | 0.00 | 0.01 | 0.01 | 95 | 1017.7 |
| 20260831101202 | 53 | 313 | 1.0 | 3.0 | 0.00 | 0.01 | 0.01 | 95 | 1017.6 |
| 20260831100203 | 53 | 313 | 1.0 | 3.0 | 0.00 | 0.01 | 0.01 | 95 | 1017.6 |
| 20260831095202 | 53 | 313 | 1.0 | 3.0 | 0.00 | 0.01 | 0.01 | 95 | 1017.5 |
| 20260831094203 | 54 | 313 | 1.0 | 4.0 | 0.00 | 0.01 | 0.01 | 95 | 1017.2 |
| 20260831093202 | 54 | 313 | 2.0 | 4.0 | 0.00 | 0.01 | 0.01 | 95 | 1017.0 |
| 20260831092203 | 54 | 313 | 2.0 | 4.0 | 0.00 | 0.01 | 0.01 | 95 | 1016.8 |
| 20260831091202 | 54 | 313 | 2.0 | 5.0 | 0.00 | 0.01 | 0.01 | 95 | 1016.7 |
| 20260831090203 | 54 | 313 | 1.0 | 4.0 | 0.00 | 0.01 | 0.01 | 95 | 1016.5 |
| 20260831085202 | 55 | 313 | 1.0 | 5.0 | 0.00 | 0.01 | 0.01 | 95 | 1016.3 |
| 20260831084203 | 55 | 313 | 0.0 | 3.0 | 0.00 | 0.01 | 0.01 | 94 | 1016.2 |
| 20260831083202 | 55 | 314 | 1.0 | 3.0 | 0.00 | 0.01 | 0.01 | 95 | 1016.2 |
| 20260831082203 | 55 | 314 | 0.0 | 2.0 | 0.00 | 0.01 | 0.01 | 95 | 1016.1 |
| 20260831081224 | 55 | 314 | 0.0 | 1.0 | 0.00 | 0.01 | 0.01 | 95 | 1016.2 |
| 20260831080202 | 56 | 313 | 0.0 | 3.0 | 0.00 | 0.01 | 0.01 | 95 | 1016.2 |
| 20260831075203 | 56 | 314 | 1.0 | 4.0 | 0.00 | 0.01 | 0.01 | 95 | 1016.3 |
| 20260831074224 | 56 | 314 | 2.0 | 3.0 | 0.00 | 0.01 | 0.01 | 94 | 1016.3 |
| 20260831073203 | 56 | 314 | 1.0 | 5.0 | 0.00 | 0.01 | 0.01 | 94 | 1016.2 |
| 20260831072203 | 56 | 314 | 1.0 | 4.0 | 0.00 | 0.01 | 0.01 | 95 | 1016.2 |
| 20260831071202 | 56 | 313 | 3.0 | 5.0 | 0.00 | 0.01 | 0.01 | 95 | 1016.1 |
| 20260831070203 | 57 | 313 | 2.0 | 5.0 | 0.00 | 0.01 | 0.01 | 94 | 1016.1 |
| 20260831065203 | 57 | 313 | 2.0 | 5.0 | 0.00 | 0.01 | 0.01 | 94 | 1015.9 |
| 20260831064202 | 57 | 324 | 1.0 | 5.0 | 0.00 | 0.01 | 0.01 | 94 | 1015.9 |
| 20260831063203 | 57 | 324 | 1.0 | 5.0 | 0.00 | 0.01 | 0.01 | 94 | 1015.9 |
| 20260831062202 | 57 | 324 | 1.0 | 4.0 | 0.00 | 0.01 | 0.01 | 94 | 1015.7 |
| 20260831061203 | 58 | 324 | 2.0 | 6.0 | 0.00 | 0.01 | 0.01 | 94 | 1015.7 |
| 20260831060202 | 58 | 324 | 2.0 | 6.0 | 0.00 | 0.01 | 0.01 | 94 | 1015.5 |
| 20260831055224 | 58 | 322 | 0.0 | 5.0 | 0.00 | 0.01 | 0.01 | 94 | 1015.4 |
| 20260831054202 | 58 | 322 | 2.0 | 5.0 | 0.00 | 0.01 | 0.01 | 94 | 1015.3 |
| 20260831053203 | 58 | 322 | 0.0 | 4.0 | 0.00 | 0.01 | 0.01 | 94 | 1015.3 |
| 20260831052245 | 58 | 322 | 1.0 | 4.0 | 0.00 | 0.01 | 0.01 | 94 | 1015.3 |
| 20260831051202 | 58 | 322 | 0.0 | 3.0 | 0.00 | 0.01 | 0.01 | 94 | 1015.2 |
| 20260831050203 | 58 | 322 | 0.0 | 3.0 | 0.00 | 0.01 | 0.01 | 94 | 1015.0 |
| 20260831045202 | 58 | 322 | 1.0 | 3.0 | 0.01 | 0.01 | 0.01 | 94 | 1015.1 |
| 20260831044203 | 59 | 322 | 0.0 | 2.0 | 0.01 | 0.01 | 0.01 | 94 | 1015.0 |
| 20260831043202 | 59 | 322 | 1.0 | 3.0 | 0.00 | 0.00 | 0.00 | 94 | 1014.9 |
| 20260831042203 | 59 | 322 | 0.0 | 2.0 | 0.00 | 0.00 | 0.00 | 94 | 1014.9 |
| 20260831041202 | 59 | 322 | 0.0 | 3.0 | 0.00 | 0.00 | 0.00 | 94 | 1014.9 |
| 20260831040203 | 60 | 323 | 0.0 | 2.0 | 0.00 | 0.00 | 0.00 | 93 | 1014.7 |
| 20260831035224 | 60 | 323 | 0.0 | 3.0 | 0.00 | 0.00 | 0.00 | 93 | 1014.7 |
| 20260831034203 | 60 | 322 | 0.0 | 3.0 | 0.00 | 0.00 | 0.00 | 93 | 1014.6 |
| 20260831033203 | 60 | 322 | 2.0 | 4.0 | 0.00 | 0.00 | 0.00 | 93 | 1014.7 |
| 20260831032202 | 60 | 322 | 1.0 | 3.0 | 0.00 | 0.00 | 0.00 | 93 | 1014.4 |
| 20260831031203 | 60 | 322 | 1.0 | 5.0 | 0.00 | 0.00 | 0.00 | 92 | 1014.4 |
| 20260831030202 | 60 | 322 | 1.0 | 2.0 | 0.00 | 0.00 | 0.00 | 91 | 1014.5 |
| 20260831025203 | 61 | 322 | 1.0 | 5.0 | 0.00 | 0.00 | 0.00 | 90 | 1014.9 |
| 20260831024203 | 61 | 321 | 2.0 | 5.0 | 0.00 | 0.00 | 0.00 | 89 | 1014.8 |
| 20260831023203 | 62 | 319 | 1.0 | 6.0 | 0.00 | 0.00 | 0.00 | 87 | 1014.8 |
| 20260831022203 | 63 | 3 | 4.0 | 12.0 | 0.00 | 0.00 | 0.00 | 83 | 1015.0 |
| 20260831021202 | 65 | 336 | 6.0 | 17.0 | 0.00 | 0.00 | 0.00 | 78 | 1015.2 |
| 20260831020224 | 67 | 9 | 5.0 | 19.0 | 0.00 | 0.00 | 0.00 | 76 | 1015.0 |
| 20260831015203 | 67 | 353 | 4.0 | 10.0 | 0.00 | 0.00 | 0.00 | 81 | 1014.9 |
| 20260831014202 | 66 | 278 | 0.0 | 1.0 | 0.00 | 0.00 | 0.00 | 83 | 1013.9 |
| 20260831013203 | 67 | 278 | 1.0 | 2.0 | 0.00 | 0.00 | 0.00 | 81 | 1013.6 |
| 20260831012203 | 67 | 279 | 0.0 | 2.0 | 0.00 | 0.00 | 0.00 | 80 | 1013.4 |
| 20260831011203 | 67 | 279 | 0.0 | 0.0 | 0.00 | 0.00 | 0.00 | 80 | 1013.4 |
| 20260831010224 | 68 | 279 | 0.0 | 2.0 | 0.00 | 0.00 | 0.00 | 78 | 1013.4 |
| 20260831005203 | 69 | 278 | 1.0 | 4.0 | 0.00 | 0.00 | 0.00 | 77 | 1013.5 |
| 20260831004203 | 69 | 278 | 0.0 | 4.0 | 0.00 | 0.00 | 0.00 | 76 | 1013.5 |
| 20260831003203 | 69 | 273 | 2.0 | 7.0 | 0.00 | 0.00 | 0.00 | 75 | 1013.4 |
| 20260831001202 | 71 | 265 | 2.0 | 9.0 | 0.00 | 0.00 | 0.00 | 69 | 1013.1 |
| 20260831000204 | 70 | 268 | 2.0 | 6.0 | 0.00 | 0.00 | 0.00 | 70 | 1013.1 |
| 20260830235202 | 70 | 265 | 2.0 | 6.0 | 0.00 | 0.00 | 0.00 | 69 | 1012.9 |
| 20260830234203 | 70 | 264 | 1.0 | 6.0 | 0.00 | 0.00 | 0.00 | 70 | 1012.8 |
| 20260830233203 | 70 | 264 | 2.0 | 7.0 | 0.00 | 0.00 | 0.00 | 71 | 1012.9 |
| 20260830232203 | 70 | 273 | 1.0 | 4.0 | 0.00 | 0.00 | 0.00 | 71 | 1012.9 |
| 20260830231224 | 70 | 275 | 2.0 | 5.0 | 0.00 | 0.00 | 0.00 | 72 | 1012.8 |
| 20260830230203 | 70 | 277 | 2.0 | 5.0 | 0.00 | 0.00 | 0.00 | 72 | 1012.8 |
| 20260830225202 | 70 | 276 | 2.0 | 5.0 | 0.00 | 0.00 | 0.00 | 73 | 1012.8 |
| 20260830224203 | 70 | 277 | 0.0 | 4.0 | 0.00 | 0.00 | 0.00 | 74 | 1012.7 |
| 20260830223202 | 70 | 277 | 0.0 | 2.0 | 0.00 | 0.00 | 0.00 | 75 | 1012.8 |
| 20260830222224 | 71 | 277 | 1.0 | 3.0 | 0.00 | 0.00 | 0.00 | 74 | 1012.8 |
| 20260830221203 | 71 | 277 | 1.0 | 3.0 | 0.00 | 0.00 | 0.00 | 73 | 1013.0 |
| 20260830220202 | 71 | 277 | 1.0 | 4.0 | 0.00 | 0.00 | 0.00 | 72 | 1013.0 |
| 20260830215203 | 72 | 278 | 1.0 | 4.0 | 0.00 | 0.00 | 0.00 | 71 | 1013.0 |
| 20260830214202 | 72 | 271 | 2.0 | 9.0 | 0.00 | 0.00 | 0.00 | 71 | 1013.1 |
| 20260830213203 | 72 | 257 | 1.0 | 7.0 | 0.00 | 0.00 | 0.00 | 71 | 1012.9 |
| 20260830212203 | 72 | 239 | 1.0 | 10.0 | 0.00 | 0.00 | 0.00 | 72 | 1012.9 |
| 20260830211202 | 72 | 258 | 4.0 | 9.0 | 0.00 | 0.00 | 0.00 | 71 | 1012.9 |
| 20260830210203 | 72 | 235 | 2.0 | 4.0 | 0.00 | 0.00 | 0.00 | 71 | 1012.9 |
| 20260830205203 | 72 | 243 | 3.0 | 10.0 | 0.00 | 0.00 | 0.00 | 71 | 1012.9 |
| 20260830204203 | 72 | 236 | 3.0 | 8.0 | 0.00 | 0.00 | 0.00 | 72 | 1013.1 |
| 20260830203203 | 72 | 273 | 2.0 | 9.0 | 0.00 | 0.00 | 0.00 | 72 | 1013.1 |
| 20260830202202 | 72 | 193 | 4.0 | 8.0 | 0.00 | 0.00 | 0.00 | 71 | 1013.1 |
| 20260830201203 | 72 | 195 | 3.0 | 6.0 | 0.00 | 0.00 | 0.00 | 74 | 1013.2 |
| 20260830200203 | 72 | 245 | 1.0 | 7.0 | 0.00 | 0.00 | 0.00 | 73 | 1013.2 |
| 20260830195203 | 72 | 183 | 4.0 | 9.0 | 0.00 | 0.00 | 0.00 | 72 | 1013.6 |
| 20260830194203 | 73 | 277 | 1.0 | 3.0 | 0.00 | 0.00 | 0.00 | 73 | 1013.5 |
| 20260830193202 | 72 | 278 | 2.0 | 4.0 | 0.00 | 0.00 | 0.00 | 72 | 1013.6 |
| 20260830192203 | 73 | 263 | 4.0 | 7.0 | 0.00 | 0.00 | 0.00 | 71 | 1013.8 |
| 20260830191224 | 74 | 250 | 2.0 | 6.0 | 0.00 | 0.00 | 0.00 | 71 | 1014.1 |
| 20260830190203 | 72 | 260 | 4.0 | 9.0 | 0.00 | 0.00 | 0.00 | 71 | 1014.2 |
| 20260830185203 | 71 | 282 | 3.0 | 10.0 | 0.00 | 0.00 | 0.00 | 73 | 1014.3 |
| 20260830184202 | 70 | 193 | 1.0 | 6.0 | 0.00 | 0.00 | 0.00 | 77 | 1014.4 |
| 20260830183203 | 71 | 189 | 1.0 | 4.0 | 0.00 | 0.00 | 0.00 | 77 | 1014.7 |
| 20260830182203 | 71 | 189 | 1.0 | 5.0 | 0.00 | 0.00 | 0.00 | 76 | 1014.7 |
| 20260830181202 | 71 | 188 | 3.0 | 5.0 | 0.00 | 0.00 | 0.00 | 75 | 1014.6 |
| 20260830180203 | 71 | 188 | 3.0 | 5.0 | 0.00 | 0.00 | 0.00 | 74 | 1014.9 |
| 20260830175203 | 72 | 188 | 2.0 | 4.0 | 0.00 | 0.00 | 0.00 | 73 | 1015.0 |
| 20260830174203 | 72 | 188 | 3.0 | 4.0 | 0.00 | 0.00 | 0.00 | 72 | 1014.8 |
| 20260830173224 | 71 | 188 | 1.0 | 3.0 | 0.00 | 0.00 | 0.00 | 73 | 1014.8 |
| 20260830172203 | 71 | 188 | 1.0 | 4.0 | 0.00 | 0.00 | 0.00 | 73 | 1014.8 |
| 20260830171203 | 71 | 188 | 2.0 | 7.0 | 0.00 | 0.00 | 0.00 | 73 | 1014.8 |
| 20260830170202 | 71 | 189 | 3.0 | 8.0 | 0.00 | 0.00 | 0.00 | 71 | 1014.8 |
| 20260830165224 | 72 | 189 | 3.0 | 6.0 | 0.00 | 0.00 | 0.00 | 69 | 1014.8 |
| 20260830164202 | 73 | 194 | 3.0 | 6.0 | 0.00 | 0.00 | 0.00 | 66 | 1015.0 |
| 20260830163203 | 77 | 193 | 4.0 | 7.0 | 0.00 | 0.00 | 0.00 | 61 | 1014.9 |
| 20260830162202 | 79 | 184 | 5.0 | 9.0 | 0.00 | 0.00 | 0.00 | 57 | 1014.8 |
| 20260830161203 | 79 | 234 | 2.0 | 8.0 | 0.00 | 0.00 | 0.00 | 59 | 1014.9 |
| 20260830160203 | 77 | 252 | 3.0 | 7.0 | 0.00 | 0.00 | 0.00 | 62 | 1015.1 |
| 20260830155202 | 74 | 258 | 2.0 | 4.0 | 0.00 | 0.00 | 0.00 | 66 | 1015.2 |
| 20260830154224 | 73 | 260 | 1.0 | 4.0 | 0.00 | 0.00 | 0.00 | 70 | 1015.2 |
| 20260830153203 | 71 | 260 | 1.0 | 4.0 | 0.00 | 0.00 | 0.00 | 72 | 1015.4 |
| 20260830152202 | 71 | 261 | 1.0 | 6.0 | 0.00 | 0.00 | 0.00 | 71 | 1015.7 |
| 20260830151203 | 72 | 265 | 1.0 | 6.0 | 0.00 | 0.00 | 0.00 | 69 | 1015.8 |
| 20260830150202 | 72 | 268 | 3.0 | 6.0 | 0.00 | 0.00 | 0.00 | 67 | 1015.8 |
| 20260830145203 | 71 | 258 | 3.0 | 8.0 | 0.00 | 0.00 | 0.00 | 69 | 1016.1 |
| 20260830144203 | 70 | 187 | 1.0 | 9.0 | 0.00 | 0.00 | 0.00 | 71 | 1016.1 |
| 20260830143203 | 71 | 191 | 2.0 | 7.0 | 0.00 | 0.00 | 0.00 | 68 | 1016.1 |
| 20260830142203 | 73 | 253 | 2.0 | 8.0 | 0.00 | 0.00 | 0.00 | 66 | 1016.1 |
| 20260830141203 | 74 | 273 | 3.0 | 7.0 | 0.00 | 0.00 | 0.00 | 62 | 1016.2 |
| 20260830140203 | 73 | 245 | 4.0 | 9.0 | 0.00 | 0.00 | 0.00 | 67 | 1016.3 |
| 20260830135203 | 71 | 268 | 3.0 | 9.0 | 0.00 | 0.00 | 0.00 | 69 | 1016.5 |
| 20260830134245 | 69 | 205 | 1.0 | 7.0 | 0.00 | 0.00 | 0.00 | 74 | 1016.5 |
| 20260830133202 | 68 | 236 | 2.0 | 7.0 | 0.00 | 0.00 | 0.00 | 76 | 1016.5 |
| 20260830132203 | 68 | 253 | 2.0 | 7.0 | 0.00 | 0.00 | 0.00 | 75 | 1016.4 |
| 20260830131202 | 68 | 209 | 2.0 | 8.0 | 0.00 | 0.00 | 0.00 | 74 | 1016.5 |
| 20260830130203 | 69 | 186 | 2.0 | 7.0 | 0.00 | 0.00 | 0.00 | 74 | 1016.5 |
| 20260830125203 | 68 | 190 | 2.0 | 9.0 | 0.00 | 0.00 | 0.00 | 75 | 1016.3 |
| 20260830124202 | 68 | 263 | 4.0 | 8.0 | 0.00 | 0.00 | 0.00 | 74 | 1016.5 |
| 20260830123203 | 67 | 290 | 2.0 | 9.0 | 0.00 | 0.00 | 0.00 | 73 | 1016.4 |